Weather History for Havre, MT

Change the Weather History Date:

Friday, October 5, 2012

  Actual Average Record
Temperature  
Mean Temperature 37 °F 49 °F  
Max Temperature 46 °F 63 °F 89 °F (1920)
Min Temperature 27 °F 35 °F 4 °F (1916)
Degree Days  
Heating Degree Days 28 16  
Month to date heating degree days 94 77  
Since 1 July heating degree days 308 434  
Cooling Degree Days 0 0  
Month to date cooling degree days 0 0  
Year to date cooling degree days 507 386  
Moisture  
Dew Point 30 °F    
Average Humidity 71    
Maximum Humidity 100    
Minimum Humidity 41    
Precipitation  
Precipitation 0.00 in 0.02 in 0.53 in (1949)
Month to date precipitation 0.81 0.13  
Year to date precipitation 11.14 9.92  
Snow  
Snow 0.00 in 0.10 in 2.20 in (1959)
Month to date snowfall 0.0 0.2  
Since 1 July snowfall 0.0 0.5  
Since 1 September snowfall 0.0 0.5  
Snow Depth 0.00 in    
Sea Level Pressure  
Sea Level Pressure 30.45 in    
Wind  
Wind Speed 3 mph (East)    
Max Wind Speed 16 mph    
Max Gust Speed 21 mph    
Visibility 9 miles    
Events Fog    
T = Trace of Precipitation, MM = Missing Value Source: NWS Daily Summary

Daily Weather History Graph

Daily Weather History Graph

Search for Another Location

Airport:

Trip Planner

Search our weather history database for the weather conditions in past years. The results will help you decide how hot, cold, wet, or windy it might be!

Date:

Astronomy

Oct. 05, 2012 Rise Set
Actual Time 7:25 AM MDT 6:48 PM MDT
Civil Twilight 6:53 AM MDT 7:19 PM MDT
Nautical Twilight 6:17 AM MDT 7:56 PM MDT
Astronomical Twilight 5:40 AM MDT 8:32 PM MDT
Moon 9:51 PM MDT (10/5) 12:58 PM MDT (10/5)
Length of Visible Light 12h 26m
Length of Day
11h 23m
Waning Gibbous, 73% of the Moon is Illuminated
Oct 5
Waning Gibbous
Oct 8
Last Quarter
Oct 15
New
Oct 21
First Quarter
Oct 29
Full

Hourly Weather History & Observations

Time (MDT) Temp. Windchill Dew Point Humidity Pressure Visibility Wind Dir Wind Speed Gust Speed Precip Events Conditions
12:53 AM 34.0 °F - 32.0 °F 92% 30.45 in 10.0 mi Calm Calm - N/A   Clear
1:53 AM 32.0 °F - 30.2 °F 93% 30.39 in 10.0 mi Calm Calm - N/A   Partly Cloudy
2:39 AM 28.4 °F - 28.4 °F 100% 30.39 in 1.8 mi Calm Calm - N/A   Scattered Clouds
2:44 AM 28.4 °F 24.6 °F 26.6 °F 93% 30.39 in 0.8 mi SSE 3.5 mph - N/A   Mostly Cloudy
2:53 AM 28.0 °F - 27.0 °F 96% 30.46 in 0.2 mi Calm Calm - N/A Fog Light Freezing Fog
3:08 AM 30.2 °F - 28.4 °F 93% 30.38 in 0.8 mi Calm Calm - N/A   Overcast
3:12 AM 30.2 °F - 28.4 °F 93% 30.38 in 1.5 mi Calm Calm - N/A   Overcast
3:14 AM 30.2 °F 26.7 °F 28.4 °F 93% 30.38 in 4.0 mi SSE 3.5 mph - N/A   Overcast
3:53 AM 28.9 °F 25.2 °F 27.0 °F 92% 30.45 in 10.0 mi SW 3.5 mph - N/A   Scattered Clouds
4:53 AM 30.0 °F - 28.0 °F 92% 30.45 in 10.0 mi Calm Calm - N/A   Overcast
5:04 AM 28.4 °F - 28.4 °F 100% 30.39 in 10.0 mi Calm Calm - N/A   Overcast
5:31 AM 30.2 °F - 28.4 °F 93% 30.39 in 10.0 mi Calm Calm - N/A   Overcast
5:41 AM 30.2 °F - 30.2 °F 100% 30.39 in 10.0 mi Calm Calm - N/A   Overcast
5:53 AM 30.9 °F - 30.0 °F 96% 30.45 in 10.0 mi Calm Calm - N/A   Overcast
6:32 AM 30.2 °F - 30.2 °F 100% 30.39 in 9.0 mi Calm Calm - N/A   Overcast
6:41 AM 32.0 °F - 30.2 °F 93% 30.39 in 9.0 mi Calm Calm - N/A   Overcast
6:53 AM 32.0 °F 28.7 °F 30.9 °F 96% 30.46 in 10.0 mi WNW 3.5 mph - N/A   Overcast
7:32 AM 32.0 °F 28.7 °F 30.2 °F 93% 30.41 in 9.0 mi West 3.5 mph - N/A   Overcast
7:53 AM 33.1 °F 28.7 °F 32.0 °F 96% 30.48 in 10.0 mi WSW 4.6 mph - N/A   Overcast
8:30 AM 33.8 °F - 32.0 °F 93% 30.42 in 8.0 mi Calm Calm - N/A   Overcast
8:53 AM 33.1 °F - 30.9 °F 92% 30.50 in 9.0 mi Calm Calm - N/A   Mostly Cloudy
9:16 AM 33.8 °F - 32.0 °F 93% 30.43 in 10.0 mi Calm Calm - N/A   Mostly Cloudy
9:53 AM 35.1 °F - 32.0 °F 89% 30.51 in 10.0 mi Calm Calm - N/A   Mostly Cloudy
10:09 AM 35.6 °F 32.8 °F 32.0 °F 87% 30.44 in 10.0 mi NNE 3.5 mph - N/A   Scattered Clouds
10:27 AM 35.6 °F 32.8 °F 32.0 °F 87% 30.44 in 10.0 mi NE 3.5 mph - N/A   Mostly Cloudy
10:39 AM 37.4 °F - 33.8 °F 87% 30.44 in 10.0 mi Calm Calm - N/A   Overcast
10:53 AM 36.0 °F - 33.1 °F 89% 30.52 in 10.0 mi Calm Calm - N/A   Overcast
11:43 AM 39.2 °F - 33.8 °F 81% 30.45 in 10.0 mi Calm Calm - N/A   Scattered Clouds
11:53 AM 39.9 °F 37.8 °F 32.0 °F 73% 30.52 in 10.0 mi NE 3.5 mph - N/A   Scattered Clouds
12:53 PM 42.1 °F - 28.0 °F 58% 30.51 in 10.0 mi Calm Calm - N/A   Scattered Clouds
1:53 PM 44.1 °F - 27.0 °F 51% 30.49 in 10.0 mi Calm Calm - N/A   Clear
2:53 PM 45.0 °F - 26.1 °F 48% 30.48 in 10.0 mi Calm Calm - N/A   Mostly Cloudy
3:53 PM 45.0 °F - 23.0 °F 42% 30.48 in 10.0 mi Calm Calm - N/A   Scattered Clouds
4:53 PM 43.0 °F 35.1 °F 30.0 °F 60% 30.48 in 10.0 mi NNE 17.3 mph 20.7 mph N/A   Overcast
5:53 PM 42.1 °F 37.1 °F 28.0 °F 58% 30.49 in 10.0 mi ENE 8.1 mph - N/A   Mostly Cloudy
6:53 PM 37.0 °F 29.3 °F 32.0 °F 82% 30.51 in 10.0 mi East 11.5 mph - N/A   Clear
7:53 PM 34.0 °F 28.0 °F 30.9 °F 89% 30.51 in 10.0 mi East 6.9 mph - N/A   Clear
8:53 PM 32.0 °F 27.5 °F 28.9 °F 88% 30.51 in 10.0 mi East 4.6 mph - N/A   Clear
9:53 PM 32.0 °F - 28.0 °F 85% 30.49 in 10.0 mi Calm Calm - N/A   Clear
10:53 PM 30.0 °F 26.5 °F 26.1 °F 85% 30.49 in 10.0 mi SSW 3.5 mph - N/A   Clear
11:53 PM 30.0 °F - 26.1 °F 85% 30.48 in 10.0 mi Calm Calm - N/A   Clear